Date,TemperatureHighF,TemperatureAvgF,TemperatureLowF,DewpointHighF,DewpointAvgF,DewpointLowF,HumidityHigh,HumidityAvg,HumidityLow,PressureMaxIn,PressureMinIn,WindSpeedMaxMPH,WindSpeedAvgMPH,GustSpeedMaxMPH,PrecipitationSumIn
2013-2-1,34.7,27.5,21.0,26.1,13.5,6.4,79,56,40,30.31,29.91,19,4,31,0.00
2013-2-2,38.7,27.9,18.9,30.0,16.8,6.6,98,66,33,30.34,30.01,9,2,17,0.00
2013-2-3,48.0,34.9,26.4,34.3,25.5,18.7,100,72,34,30.01,29.84,13,1,25,0.05
2013-2-4,46.9,35.3,25.3,27.0,21.8,16.5,75,59,40,30.09,29.95,12,2,21,0.00
2013-2-5,58.3,46.4,37.0,39.6,29.9,21.9,68,53,31,29.95,29.85,15,2,27,0.00
2013-2-6,59.5,48.3,38.8,33.4,28.7,20.1,73,49,29,30.14,29.93,18,2,23,0.00
2013-2-7,48.7,41.7,38.3,39.7,32.0,20.5,97,72,36,30.15,29.91,30,6,35,0.64
2013-2-8,49.8,41.4,31.8,46.0,36.7,25.7,98,85,53,30.06,29.86,28,4,39,0.00
2013-2-9,53.2,39.2,29.1,25.7,22.1,16.7,81,54,26,30.30,30.03,24,4,31,0.00
2013-2-10,48.4,41.9,36.3,43.7,27.7,17.2,98,59,41,30.35,30.12,8,1,13,0.38
2013-2-11,52.0,48.1,43.3,51.6,47.0,29.8,99,96,52,30.12,29.92,11,2,22,0.22
2013-2-12,52.2,43.8,38.3,37.0,28.0,18.0,91,56,27,30.03,29.84,26,4,40,0.10
2013-2-13,42.1,38.1,33.1,41.9,35.8,28.4,100,92,78,29.85,29.60,16,1,29,0.03
2013-2-14,47.5,37.8,30.2,35.6,30.1,25.5,84,74,58,30.01,29.80,27,4,37,0.01
2013-2-15,57.4,44.1,33.4,37.2,30.9,27.0,81,61,38,30.04,29.88,22,3,31,0.00
2013-2-16,33.6,28.9,21.0,29.1,20.4,9.7,91,71,52,29.98,29.76,30,5,40,0.00
2013-2-17,36.0,26.7,18.0,11.1,6.1,3.2,61,42,26,30.24,29.98,17,2,29,0.00
2013-2-18,50.7,37.0,26.8,25.2,17.8,7.2,58,46,33,30.34,30.14,12,2,14,0.00
2013-2-19,45.9,36.6,31.6,42.4,30.1,13.5,99,79,44,30.15,29.84,15,2,25,0.24
2013-2-20,46.4,36.0,27.3,16.3,10.8,5.7,51,36,23,30.07,29.98,33,5,36,0.00
2013-2-21,52.9,40.4,28.9,32.7,16.4,7.5,81,39,23,30.17,30.05,19,3,28,0.22
2013-2-22,38.1,34.2,32.0,35.2,32.6,27.7,99,94,80,30.20,30.05,17,2,30,0.49
2013-2-23,47.3,41.6,33.8,47.1,41.3,33.3,99,99,89,30.08,29.79,12,1,17,0.37
2013-2-24,55.9,46.0,38.5,41.0,32.1,22.8,92,61,36,29.95,29.79,26,7,31,0.00
2013-2-25,41.0,37.0,29.8,27.7,23.7,20.3,91,59,46,30.07,29.92,28,5,37,0.00
2013-2-26,39.2,35.6,29.8,38.5,34.6,27.9,99,96,91,29.97,29.55,43,9,56,1.13
2013-2-27,52.2,40.9,31.3,39.9,34.3,29.5,99,79,60,29.77,29.60,13,2,22,0.01
2013-2-28,42.1,35.2,29.3,31.5,25.0,21.4,79,66,52,29.83,29.66,21,2,28,0.00